LiveATC.Net - Listen to live air traffic control over the Internet!


ICAO: EYKA  IATA: KUN   Airport: Kaunas Airport
City: Kaunas
Country: Lithuania   Continent: Europe
EYKA METAR Weather: EYKA 171220Z 28007KT 240V330 9999 SCT013 BKN028 06/03 Q1019 R08/190095
EYKA Flight Activity (FlightAware)

EYKA Gnd/Twr/FIS
Feed Status: DOWN
Last heard on: 2019-01-21 19:46:02 (26 days 17 hours 10 minutes ago)
EYKA Gnd/Twr/FIS Audio Archives
FacilityFrequency
EYKS (ALEKSOTAS) Info135.500
Kaunas Approach124.200
Kaunas Info124.600
Kaunas Tower118.500

NOTICE

Unauthorized use prohibited. See LiveATC.net Terms of Service


Find LiveATC Audio Streams


Airport/ARTCC Code

Frequency Search
(e.g., 124.400, 128.75)
Site-wide search
 


Browse LiveATC Feeds
Top 50 LiveATC Feeds
LiveATC Feed Map
Bad Weather Areas

LiveATC FAQ
Offer LiveATC feed
Contact LiveATC.net
Press Inquiries

LiveATC on iPhone
LiveATC on Android

Windows Phone
Windows 8/10

LiveATC Mobile
(Mobile browser)

ATC Audio Archives
Interesting Recordings

LiveATC Forums


Home Page
About LiveATC.net
Make a Donation
Terms of Use
Privacy Policy

Canadian Air Freqs

AIRMETs/SIGMETs

FAA Airport Status
Nat'l Airspace Status
Arrival Demand Charts


Server Software By:
Icecast.org
Liquidsoap